User: anonymous   Login
Location: Carri�res
(48.9069°N, 2.1792°E)
Time: 07:08:23
(UTC+00:00)
Language:

Meteor 1-21 Rocket - Orbit

View from above orbital plane
View from above orbital plane
View from above satellite
View from above satellite

Ground track
Ground track

The orbit data is extracted from the following two-line orbital elements,

1 07715U 75023B   21108.87514969  .00000143  00000-0  77166-4 0  9997
2 07715  81.2187 309.7286 0051334 149.1293 211.2912 14.06796992362461
Epoch (UTC): 18 April 2021 21:00:12
Eccentricity: 0.0051334
inclination: 81.2187°
perigee height: 833 km
apogee height: 907 km
right ascension of ascending node: 309.7286°
argument of perigee: 149.1293°
revolutions per day: 14.06796992
mean anomaly at epoch: 211.2912°
orbit number at epoch: 36246

The dashed part of the orbit path shows where the satellite is in the earth's shadow,  

DLR